• en France
  • Liste des pays
  • À 7 jours
  • Température de l'eau
  • Carte satellitaire
  • Carte météo
  • Widgets météo
  • user-avatar
    Se connecter

    Météo par heure à Namibe

    Ce jour, 14 Novembre, Mercredi

    Heure Température Précipitation Vent Pression Humidité
    00:00 +31°C° 0 mm 1 m/s 755 mmHg 42%
    01:00 +31°C° 0 mm 1 m/s 754 mmHg 42%
    02:00 +30°C° 0 mm 1 m/s 754 mmHg 45%
    03:00 +30°C° 0 mm 2 m/s 754 mmHg 47%
    04:00 +29°C° 0 mm 2 m/s 754 mmHg 50%
    05:00 +29°C° 0 mm 2 m/s 754 mmHg 51%
    06:00 +29°C° 0 mm 2 m/s 755 mmHg 52%
    07:00 +29°C° 0 mm 2 m/s 755 mmHg 53%
    08:00 +32°C° 0 mm 2 m/s 755 mmHg 46%
    09:00 +35°C° 0 mm 3 m/s 755 mmHg 39%
    10:00 +37°C° 0 mm 3 m/s 755 mmHg 32%
    11:00 +38°C° 0 mm 4 m/s 754 mmHg 31%
    12:00 +41°C° 0 mm 6 m/s 754 mmHg 30%
    13:00 +43°C° 0 mm 7 m/s 753 mmHg 29%
    14:00 +40°C° 0 mm 7 m/s 753 mmHg 31%
    15:00 +39°C° 0 mm 7 m/s 752 mmHg 34%
    16:00 +36°C° 0 mm 7 m/s 752 mmHg 37%
    17:00 +35°C° 0 mm 5 m/s 753 mmHg 45%
    18:00 +33°C° 0 mm 4 m/s 754 mmHg 54%
    19:00 +30°C° 0 mm 2 m/s 755 mmHg 62%
    20:00 +30°C° 0 mm 2 m/s 756 mmHg 63%
    21:00 +29°C° 0 mm 2 m/s 757 mmHg 64%
    22:00 +29°C° 0 mm 2 m/s 757 mmHg 65%
    23:00 +29°C° 0 mm 3 m/s 757 mmHg 66%

    Demain, 15 Novembre, Jeudi

    Heure Température Précipitation Vent Pression Humidité
    00:00 +29°C° 0 mm 4 m/s 757 mmHg 68%
    01:00 +29°C° 0 mm 4 m/s 757 mmHg 69%
    02:00 +28°C° 0 mm 4 m/s 757 mmHg 71%
    03:00 +28°C° 0 mm 3 m/s 756 mmHg 72%
    04:00 +28°C° 0 mm 3 m/s 756 mmHg 74%
    05:00 +28°C° 0 mm 3 m/s 757 mmHg 73%
    06:00 +28°C° 0 mm 3 m/s 757 mmHg 73%
    07:00 +29°C° 0 mm 3 m/s 757 mmHg 72%
    08:00 +31°C° 0 mm 3 m/s 757 mmHg 61%
    09:00 +34°C° 0 mm 4 m/s 757 mmHg 51%
    10:00 +36°C° 0 mm 4 m/s 757 mmHg 40%
    11:00 +37°C° 0 mm 5 m/s 757 mmHg 38%
    12:00 +37°C° 0 mm 5 m/s 756 mmHg 36%
    13:00 +39°C° 0 mm 6 m/s 755 mmHg 34%
    14:00 +38°C° 0 mm 6 m/s 755 mmHg 36%
    15:00 +36°C° 0 mm 6 m/s 754 mmHg 39%
    16:00 +35°C° 0 mm 6 m/s 754 mmHg 42%
    17:00 +34°C° 0 mm 5 m/s 755 mmHg 51%
    18:00 +32°C° 0 mm 5 m/s 755 mmHg 60%
    19:00 +29°C° 0 mm 4 m/s 756 mmHg 69%
    20:00 +29°C° 0 mm 3 m/s 757 mmHg 71%
    21:00 +28°C° 0 mm 2 m/s 758 mmHg 73%
    22:00 +28°C° 0 mm 1 m/s 759 mmHg 75%
    23:00 +28°C° 0 mm 1 m/s 758 mmHg 75%

    Après-demain, 16 Novembre, Vendredi

    Heure Température Précipitation Vent Pression Humidité
    00:00 +28°C° 0 mm 1 m/s 758 mmHg 76%
    01:00 +28°C° 0 mm 1 m/s 757 mmHg 76%
    02:00 +27°C° 0 mm 1 m/s 757 mmHg 77%
    03:00 +27°C° 0 mm 1 m/s 757 mmHg 78%
    04:00 +27°C° 0 mm 1 m/s 757 mmHg 79%
    05:00 +27°C° 0 mm 1 m/s 757 mmHg 79%
    06:00 +27°C° 0 mm 1 m/s 758 mmHg 78%
    07:00 +27°C° 0 mm 2 m/s 758 mmHg 78%
    08:00 +29°C° 0 mm 2 m/s 758 mmHg 68%
    09:00 +31°C° 0 mm 3 m/s 758 mmHg 58%
    10:00 +34°C° 0 mm 4 m/s 758 mmHg 49%
    11:00 +35°C° 0 mm 4 m/s 758 mmHg 47%
    12:00 +35°C° 0 mm 5 m/s 757 mmHg 45%
    13:00 +36°C° 0 mm 5 m/s 756 mmHg 43%
    14:00 +35°C° 0 mm 5 m/s 756 mmHg 45%
    15:00 +35°C° 0 mm 6 m/s 755 mmHg 47%
    16:00 +34°C° 0 mm 6 m/s 755 mmHg 49%
    17:00 +33°C° 0 mm 5 m/s 756 mmHg 56%
    18:00 +30°C° 0 mm 4 m/s 756 mmHg 63%
    19:00 +29°C° 0 mm 3 m/s 757 mmHg 69%
    20:00 +28°C° 0 mm 3 m/s 758 mmHg 72%
    21:00 +28°C° 0 mm 2 m/s 758 mmHg 74%
    22:00 +28°C° 0 mm 2 m/s 759 mmHg 77%
    23:00 +27°C° 0 mm 1 m/s 759 mmHg 78%

    17 Novembre, Samedi

    Heure Température Précipitation Vent Pression Humidité
    00:00 +27°C° 0 mm 1 m/s 758 mmHg 79%
    01:00 +27°C° 0 mm 1 m/s 758 mmHg 81%
    02:00 +27°C° 0 mm 1 m/s 758 mmHg 81%
    03:00 +27°C° 0 mm 1 m/s 757 mmHg 81%
    04:00 +27°C° 0 mm 1 m/s 757 mmHg 81%
    05:00 +27°C° 0 mm 1 m/s 758 mmHg 78%
    06:00 +28°C° 0 mm 1 m/s 758 mmHg 75%
    07:00 +28°C° 0 mm 2 m/s 759 mmHg 72%
    08:00 +30°C° 0 mm 2 m/s 759 mmHg 62%
    09:00 +33°C° 0 mm 3 m/s 759 mmHg 52%
    10:00 +35°C° 0 mm 4 m/s 759 mmHg 42%
    11:00 +36°C° 0 mm 4 m/s 758 mmHg 42%
    12:00 +36°C° 0 mm 5 m/s 757 mmHg 42%
    13:00 +38°C° 0 mm 6 m/s 757 mmHg 42%
    14:00 +36°C° 0 mm 6 m/s 756 mmHg 45%
    15:00 +35°C° 0 mm 5 m/s 756 mmHg 48%
    16:00 +34°C° 0 mm 5 m/s 756 mmHg 51%
    17:00 +32°C° 0 mm 5 m/s 756 mmHg 58%
    18:00 +30°C° 0 mm 4 m/s 757 mmHg 65%
    19:00 +28°C° 0 mm 4 m/s 757 mmHg 72%
    20:00 +28°C° 0 mm 4 m/s 758 mmHg 74%
    21:00 +28°C° 0 mm 3 m/s 759 mmHg 76%
    22:00 +27°C° 0 mm 3 m/s 759 mmHg 78%
    23:00 +27°C° 0 mm 2 m/s 759 mmHg 78%

    18 Novembre, Dimanche

    Heure Température Précipitation Vent Pression Humidité
    00:00 +27°C° 0 mm 2 m/s 759 mmHg 78%
    01:00 +27°C° 0 mm 1 m/s 758 mmHg 78%
    02:00 +27°C° 0 mm 1 m/s 758 mmHg 78%
    03:00 +27°C° 0 mm 1 m/s 758 mmHg 78%
    04:00 +27°C° 0 mm 1 m/s 757 mmHg 78%
    05:00 +27°C° 0 mm 1 m/s 758 mmHg 76%
    06:00 +28°C° 0 mm 1 m/s 758 mmHg 75%
    07:00 +28°C° 0 mm 1 m/s 758 mmHg 73%
    08:00 +30°C° 0 mm 2 m/s 758 mmHg 64%
    09:00 +33°C° 0 mm 3 m/s 758 mmHg 55%
    10:00 +34°C° 0 mm 3 m/s 758 mmHg 46%
    11:00 +35°C° 0 mm 4 m/s 758 mmHg 45%
    12:00 +35°C° 0 mm 5 m/s 757 mmHg 45%
    13:00 +36°C° 0 mm 6 m/s 756 mmHg 44%
    14:00 +35°C° 0 mm 6 m/s 756 mmHg 46%
    15:00 +34°C° 0 mm 6 m/s 756 mmHg 48%
    16:00 +33°C° 0 mm 6 m/s 755 mmHg 50%
    17:00 +32°C° 0 mm 5 m/s 756 mmHg 56%
    18:00 +30°C° 0 mm 4 m/s 757 mmHg 61%
    19:00 +28°C° 0 mm 4 m/s 757 mmHg 66%
    20:00 +28°C° 0 mm 3 m/s 758 mmHg 68%
    21:00 +28°C° 0 mm 3 m/s 758 mmHg 69%
    22:00 +27°C° 0 mm 2 m/s 759 mmHg 70%
    23:00 +27°C° 0 mm 2 m/s 758 mmHg 70%

    19 Novembre, Lundi

    Heure Température Précipitation Vent Pression Humidité
    00:00 +27°C° 0 mm 2 m/s 758 mmHg 70%
    01:00 +27°C° 0 mm 2 m/s 757 mmHg 70%
    02:00 +27°C° 0 mm 2 m/s 757 mmHg 71%
    03:00 +27°C° 0 mm 2 m/s 757 mmHg 72%
    04:00 +26°C° 0 mm 2 m/s 757 mmHg 74%
    05:00 +27°C° 0 mm 2 m/s 757 mmHg 73%
    06:00 +27°C° 0 mm 1 m/s 758 mmHg 73%
    07:00 +27°C° 0 mm 1 m/s 758 mmHg 73%
    08:00 +29°C° 0 mm 2 m/s 758 mmHg 63%
    09:00 +31°C° 0 mm 2 m/s 758 mmHg 53%
    10:00 +34°C° 0 mm 3 m/s 759 mmHg 43%
    11:00 +35°C° 0 mm 4 m/s 758 mmHg 43%
    12:00 +35°C° 0 mm 5 m/s 757 mmHg 43%
    13:00 +36°C° 0 mm 5 m/s 756 mmHg 43%
    14:00 +34°C° 0 mm 5 m/s 756 mmHg 46%
    15:00 +33°C° 0 mm 5 m/s 756 mmHg 48%
    16:00 +32°C° 0 mm 5 m/s 755 mmHg 51%
    17:00 +30°C° 0 mm 5 m/s 756 mmHg 54%
    18:00 +29°C° 0 mm 4 m/s 757 mmHg 58%
    19:00 +28°C° 0 mm 4 m/s 757 mmHg 61%
    20:00 +28°C° 0 mm 3 m/s 757 mmHg 63%
    21:00 +28°C° 0 mm 3 m/s 758 mmHg 64%
    22:00 +27°C° 0 mm 3 m/s 758 mmHg 65%
    23:00 +27°C° 0 mm 3 m/s 758 mmHg 67%
    Voir plus